No.FOSSQuestion TitleDateViewsVotesAnswersUser
Affordable-LaptopBudget laptop for work2019-05-26 26/05/19400marcus77
Affordable-LaptopFoodPanda vouchers?2019-05-25 25/05/19700ajieajie02
Affordable-Laptopwaerawreawe ertsetesrtsertsertsertsertsert2019-05-25 25/05/19400Manikam
DWSIMR.O desalination2019-05-17 17/05/193000kavin
DWSIMCustom modeler2019-05-17 17/05/192101kavin
eSimWhen trying to convert kicad to ngspice it is showing "your schematic contain...2019-05-08 08/05/194201bhanupr...
ScilabCandycrush code2019-05-07 07/05/194100luisdri
ScilabScilab/Matlab Problem.2019-05-05 05/05/196100cassar
ScilabRegarding Symbolic Tool Box2019-05-05 05/05/194500piratla...
ScilabRegarding TBC on Scilab2019-05-04 04/05/196405trulyajays
Scilabhow to work on scilab2019-05-04 04/05/196502Venkata...
ScilabHow to use scilab2019-05-04 04/05/193801Venkata...
Scilabregarding data sets2019-05-04 04/05/194801gusha
Scilabscilab doubt2019-05-04 04/05/196002ravi2544
ScilabScilab codes and its results will be allowed to quote in publications, if i a...2019-05-04 04/05/195401Sathya
Scilabhalf wave rectifier model execution problem2019-05-03 03/05/194801venkata...
DWSIMclassic extractive distillation with 2 simple columns,  with water, ethanol a...2019-04-29 29/04/195301Svender...
DWSIMNot able to download the codes for Textbook Companion Project2019-04-24 24/04/196701tangli666
Scilabusing cameras with Scilab and IPCV2019-04-10 10/04/197100egge_d
PythonHow to keep the proxy setup active till the end of execution2019-04-10 10/04/196101tutu10
PythonWhere to submit screening task2019-03-31 31/03/197900Sajag
Pythonunable to attempt quiz62019-03-31 31/03/196901Amrutha
ScilabApplying Filters to signals2019-03-28 28/03/198200lgunseor
DWSIMReaction manager2019-03-26 26/03/1911301Aybiee
FOSSEE Laptophow to uninstall debian and install windows 102019-03-26 26/03/195600monojgo...
Affordable-LaptopThe 1 Tb hard disk is automatically de-mounting2019-03-25 25/03/197701saiplanner
Affordable-LaptopUnable to access update files for off-line update2019-03-22 22/03/196101sethbharat
ScilabMODULUS in XCOS2019-03-20 20/03/198500raghu7862
PythonPython fossee fellowship reexam2019-03-19 19/03/197401rushic24
eSimunable to use esim_pspice library components2019-03-18 18/03/198701Malli
OpenModelicaNot installed on macos2019-03-16 16/03/195601amol_gp
Affordable-LaptopI want to install Linux into my hard disk instead of Flash Drive, How can I d...2019-03-13 13/03/198301Kishan
DWSIMequillibrium reactor2019-03-12 12/03/1916102madhur14
eSimAbout changing the course2019-03-09 09/03/199702angadir...
eSimabsence of component in library2019-03-08 08/03/1912401shivanshu
PythonSelf Learning Course March/April 20192019-03-06 06/03/1911602meeraj
ScilabHelp a newbie; How to implement an equation?2019-03-05 05/03/1910201Throwaway
eSimIC subcircuit cannot found2019-03-04 04/03/1912101angadir...
Osdag2D views- report creation2019-03-04 04/03/1911802nandanam1
PythonSelf Workshop2019-03-02 02/03/1910603shweta_k
ScilabBuild a Band-pass Butterworth Filter2019-02-27 27/02/199600UnknowS...
ScilabORIGINALITY OF EXAMPLES2019-02-25 25/02/1910801prankur...
eSimError while opening python plotting Editor. Please look at console for details2019-02-24 24/02/1910801Katakam...
Affordable-LaptopWPS Office installation in Thinbook 13102019-02-22 22/02/1911002mahesh464
ScilabCreate Xcos block with string parameter2019-02-14 14/02/1914500dagomar
ScilabHow to plot with 2 vector as horizontal axis.2019-02-13 13/02/1911102yanfanbl
RWhat after registraion?2019-02-13 13/02/1927901dishanisen
eSimCan not run the eSim software in Windows.2019-02-07 07/02/1914901ANNESYA...
OpenFOAMNo creation of processed files even after running.2019-02-06 06/02/1910301Rohan_S...
Affordable-LaptopNot able to hear sound2019-02-02 02/02/1919201sethbharat
eSimCan you provide the link for eSim installation for Windows 8?2019-02-01 01/02/1918601Subhashini
ScilabExample Naming Convention2019-01-30 30/01/1921702Parmana...
RBook proposal category2019-01-30 30/01/1923401MBhubanand
eSimHow to change the working directory of eSim?2019-01-30 30/01/1920102Subhashini
ScilabQuery regarding XCOS Super_f block2019-01-24 24/01/1911500vamsi7862
Scilabpolar graph : invisible axis2019-01-17 17/01/1911401Bilaz38
eSimSISO Experiment2019-01-15 15/01/1921801priyach...
Affordable-LaptopAugmenting memory2019-01-15 15/01/1918201Manoj
eSimError in simulating the circuit12019-01-14 14/01/1921401priyach...
eSimError in simulating the circuit2019-01-11 11/01/1923301priyach...
DWSIMIssues related to DWSIM in mac2019-01-08 08/01/1923902viggi08
eSimsimulation error2019-01-07 07/01/1927505priyach...
Affordable-LaptopReminna Remote connection in Debian Thinbook and RDP connection from Windows PC2019-01-05 05/01/1913502mahesh464
ScilabAbout Xcos project2019-01-02 02/01/1915301CBChoud...
ScilabBook proposal2019-01-02 02/01/1917001CBChoud...
Scilab'syms' function2018-12-29 29/12/1818501Akhtar
PythonQuiz-6 -- Unable to continue2018-12-28 28/12/1815601Bhaghyesh
PythonPractice data structures_exercise_question_82018-12-26 26/12/1816501Bhaghyesh
DWSIMupload user define compound2018-12-23 23/12/1817201mehul09
ScilabEquivalent function for heaviside in scilab2018-12-20 20/12/1822302Akhtar
DWSIMDWSIM Wastewater treatment process2018-12-20 20/12/1819901Shubhas...
ScilabI sent a book proposal some days before . I made mistakes in proposal .I want...2018-12-18 18/12/1816201CBChoud...
Affordable-Laptopnetwork connectivity2018-12-18 18/12/1814411rucha
Image Processing Toolboximage processing functions are not responding2018-12-18 18/12/1817200Yogin
OpenFOAMChoosing exact boundary conditions2018-12-18 18/12/1814401razon13...
ScilabGet state vectors of state space block during simulation2018-12-17 17/12/1814203alexandru
OpenFOAMRegarding Proposal2018-12-17 17/12/1812801chetant...
OpenFOAMQuery regarding heat flux boundary condition in OpenFOAM2018-12-16 16/12/1811901gikkutom
Affordable-LaptopUnable to connect laptop with smart tv2018-12-15 15/12/1816603SadasivamM
Affordable-LaptopMalfunctioning of the laptop2018-12-15 15/12/1814101Priya_s...
OpenFOAMHeat flux boundary condition in OpenFOAM2018-12-15 15/12/1820101gikkutom
Affordable-Laptopkdenlive app image was working fine - now freeze in timeline, position marker...2018-12-10 10/12/1815301ranipv
eSimReverse Characteristics of Diode2018-12-08 08/12/1824701Gloria
eSimCurrent source in eSim2018-12-08 08/12/1816401Gloria
Affordable-LaptopVLC MEDIA PLAYER2018-12-07 07/12/1814101GSMahap...
Affordable-LaptopUninstallation2018-12-07 07/12/1814211GSMahap...
eSimInstallation of eSim software2018-12-06 06/12/1821703SAI14
Affordable-Laptopmissing qt and wxt terminals from gnuplot 5.2.52018-12-06 06/12/1820206ranipv
DWSIMProblem with "Valve"2018-12-05 05/12/1819603ferbg
ScilabProcessor in Loop, Hardware in Loop etc.2018-12-04 04/12/1817901dalaylama
DWSIMfind the enthalpy in python script2018-12-04 04/12/1816501mehul09
Affordable-LaptopIssue with offline update 32018-11-28 28/11/1818801manojku...
eSimSoftware download2018-11-28 28/11/1820601sweety
Affordable-LaptopError occured while updating the System2018-11-27 27/11/1823401Jitendr...
Affordable-LaptopEven after installing updates 2 and 3 the issue persist2018-11-26 26/11/1824601Jothi
Affordable-LaptopISO file of OS(Debian)2018-11-26 26/11/1818601Jitendr...
eSimUnable to find esim installer2018-11-26 26/11/1818601Prakash14
Affordable-LaptopDisk space (won't let me post unless title is longer than 12 characters, henc...2018-11-25 25/11/1829301Manoj
Affordable-LaptopLED above F3 key2018-11-24 24/11/1825202Manoj
ScilabHow to use the oscilloscope?2018-11-23 23/11/1819601Batmano
DWSIMRigourous Distillation column error with image file2018-11-21 21/11/1819701DoshiVarun
Affordable-LaptopNo LAN Port to the device. How can I use LAN wired connections to this Machin...2018-11-21 21/11/1819003balupp
Affordable-Laptopunable todetect sd card2018-11-15 15/11/1817901peeyush...
Affordable-LaptopProblem with Voice Record2018-11-15 15/11/1817901laxman-cs
Affordable-LaptopRegarding Devanagari Typing2018-11-15 15/11/1817610Vikram
Affordable-LaptopProblem with WiFi connection2018-11-15 15/11/1824401Vikram
Affordable-LaptopWEBCAM app: Videos inaccessible2018-11-15 15/11/1821501sumedha...
Affordable-LaptopInaccessible Hard disk2018-11-15 15/11/1815001sumedha...
Affordable-LaptopBattery Drainage2018-11-12 12/11/1815801Kishan
OpenFOAMBoundary condition at inlet2018-11-11 11/11/1819802sourav0921
Affordable-LaptopTo update Windows 10 software version in Linux OS (Thinbook)2018-11-04 04/11/1828001christo...
Affordable-LaptopCan not play vedio2018-11-03 03/11/1822211Dr_kalpana
DWSIMerror in a kinetic reaction2018-11-01 01/11/1824001mehul09
Scilabwave synthesis analysis using laplace transform2018-10-31 31/10/1827101priyada...
Affordable-LaptopAffordable laptop with Hard disk2018-10-31 31/10/1835313dadas
Affordable-LaptopUBS Port not functioning2018-10-31 31/10/1826311sharma49
Affordable-LaptopNo stereo sound2018-10-31 31/10/1819912b4balu
ScilabMoving average2018-10-26 26/10/1818401Noiser1234
Affordable-LaptopSound not working!2018-10-26 26/10/1820211mohamed.ld
Scilabcsim message "Excessive work done on this call"2018-10-26 26/10/1824201felipet...
ScilabData import from clipboard2018-10-25 25/10/181001502Noiser1234
ScilabString Handling in Scilab Xcos V5.5.22018-10-17 17/10/1829401Poornac...
ScilabDifferent tasks PLEASE HELP2018-10-14 14/10/1831701joosep
eSimpcbnew layout straight to ngspice?2018-10-08 08/10/1826301coupsde...
DWSIMerror in LLE ternary graph utility2018-10-08 08/10/1830002mehul09
Scilabscetoexe not working2018-10-05 05/10/1824900anupam
eSimNot able to open examples in esim, its showing " The system cannot find the s...2018-10-01 01/10/1821801nsnairtvm
eSimUnable to proceed with Setup program2018-09-30 30/09/1820201ksmk31
OpenFOAMFoam::error::printStack(Foam::Ostream&) at ??:?2018-09-27 27/09/1829101razon13...
OpenFOAMContinuity error cannot be removed by adjusting the outflow.2018-09-19 19/09/1844101razon13...
ScilabVoronoi Diagrams2018-09-17 17/09/1821901ritu_2306
DWSIMdoubt regarding reaction furnace and condenser2018-09-15 15/09/1823301rajat
Pythonlinspace is not found . i have window 32 bit. plz help me out .2018-09-15 15/09/1817101sushma
ScilabWhat is algebraic Loop? When it Occurs in Xcos? How to Overcome it?2018-08-31 31/08/1850201arundso...
ScilabRegarding Scilab commands xcorr2018-08-29 29/08/1823501Ajay
DWSIMError in stichiometry2018-08-24 24/08/1826903drmanka...
DWSIMSimulation of process model for n number of data points or observations2018-08-24 24/08/1824301drmanka...
DWSIMDevelopment of graphical user interface in Excel2018-08-24 24/08/1824601drmanka...
eSimwhile opening the schematic window this error occur?2018-08-13 13/08/1831301duraira...
ScilabSet logarithmic scale in Sgrayplot2018-08-02 02/08/1826800Matias
DWSIMabout flowsheet submission2018-07-29 29/07/1841301mehul09
PythonThe circulate.zip error2018-07-27 27/07/1824301prateek...
FOSSEE LaptopFOSSEE OS linke is down2018-07-23 23/07/1832201mrf3
DWSIMabout a scrubber design2018-07-22 22/07/1831601mehul09
DWSIMPipe unit operation2018-07-14 14/07/1829601Rick63
OpenFOAMConvergence in Open Foam Simulation2018-07-13 13/07/1826201ben
DWSIMAbout internship's forms2018-07-05 05/07/1830411mehul09
OpenFOAMSalome bentpipe to OpenFOAM2018-07-02 02/07/1833801Happys5
SBHSWhat is Error while running the Python based "run" file ?2018-06-29 29/06/1828401Moh005
PythonRegarding quiz 62018-06-27 27/06/1822501Akash_1998
Scilaba general forum question2018-06-25 25/06/1867701maxcy
Scilabfunction return2018-06-25 25/06/1828505maxcy
ScilabSciLab 6.0.1 and Symbolic Toolbox2018-06-25 25/06/1853802kamienn...
DWSIMSimulating a condensor2018-06-24 24/06/1833701Aftab
Scilabtutorial 15 not working2018-06-23 23/06/1830800maxcy
ScilabDouble integration by Scilab2018-06-21 21/06/1838600gu08134...
DWSIMPython Documentation For DWSIM2018-06-21 21/06/1834501ParaK
ScilabFFT processing block in XCOS2018-06-21 21/06/1848401shriniv...
DWSIMBubble Column Reactor Substitute2018-06-20 20/06/1832901ParaK
ScilabGet all the file name of a directory in a list2018-06-19 19/06/1825501sarahi
Scilabdebugger acting screwy2018-06-19 19/06/1824400maxcy
ScilabI am finding it difficult to interpret this graph2018-06-18 18/06/1827000chandra...
Scilabmore debugger questions2018-06-18 18/06/1828501maxcy
ScilabTemperature Distribution in a Square2018-06-17 17/06/1828000Karthik
Scilabprint Question2018-06-17 17/06/1825901maxcy
ScilabGaussian Elimination Tutorial again2018-06-17 17/06/1826300maxcy
Scilabposting question from the tutorial link doesn't work2018-06-17 17/06/1829801maxcy
Scilabdebugging a tutorial example2018-06-17 17/06/1840902maxcy
ScilabImplement a Scilab Program for Temperature of a Radioactive rod2018-06-16 16/06/1827300Karthik
Scilabplotting a deff2018-06-16 16/06/1825001maxcy
Scilabhow to check if a random process in wss in scilab2018-06-16 16/06/1825401chandra...
Scilabdebugging SciLab examples2018-06-15 15/06/1828201maxcy
Scilabdeveloping in SciLab2018-06-15 15/06/1824301maxcy
ScilabGaussian Elimination Tutorial2018-06-14 14/06/1833700maxcy
Scilabscilab posting question2018-06-14 14/06/1831301maxcy
Scilabspoken_tutorial site2018-06-11 11/06/1826501maxcy
ScilabMAC, can´t write to a file2018-06-10 10/06/1828400ot
eSimquestion and answer list out of date?2018-06-07 07/06/1825801johnCro...
ScilabScilab - Ballistic problem2018-06-05 05/06/1828900Yetem
eSimwhen I download eSim installer for windows Norton secrity rejects it2018-06-04 04/06/1828801johnCro...
DWSIMCompound not available2018-06-01 01/06/1830501Hemanand
DWSIMhelp about vinyl chloride2018-05-28 28/05/1826501M_A_P
DWSIMCrude Desalter Simulator2018-05-27 27/05/1830601vbs305
DWSIMseparator column in compound separater2018-05-26 26/05/1825501bheemesh
DWSIMfixing the output data for a given problem2018-05-26 26/05/1826701bheemesh
Signal Processing ToolboxChecking stationarity of a random process2018-05-26 26/05/1819900chandra...
ScilabUnable to install FOSSEE Optimisation toolbox2018-05-25 25/05/1833901arian
ScilabHow to find inverse laplace transform in scilab2018-05-24 24/05/1859400chandra...
PythonError in print statement2018-05-22 22/05/1823401manavsa...
Scilabscale of axes2018-05-22 22/05/1825401RudiLehn
DWSIMConversion reactor2018-05-22 22/05/1832804srwasan
DWSIMUNIQUAC package with default flash doesnot converge.2018-05-18 18/05/1834303teja9006
OpenFOAMUsing multiInteraction type patchInteractionModel2018-05-16 16/05/1829701surajiitk
eSimlooking for a VCO component2018-05-15 15/05/1828101cuichi
ScilabScilab-Isosurfaces2018-05-03 03/05/1828300lacastelos
ScilabHelp Scilab Isosurfaces2018-05-03 03/05/1825000lacastelos
ScilabIsosurfaces Scilab2018-05-03 03/05/1827800lacastelos
ScilabIsosurfaces - Help Scilab2018-05-03 03/05/1828200lacastelos
ScilabHow to do range filter of image??2018-05-02 02/05/1831200anil_mca4
ScilabHow do I retrieve a file from scilab that seems like it has been deleted?2018-04-28 28/04/1827901frida
ScilabError installing symbolic toolbox2018-04-25 25/04/1832600dhruvpa...
DWSIMBrine evaporation in DWSIM2018-04-21 21/04/1837701nagaraj...
PythonRegarding review of given question2018-04-18 18/04/1827801darpitk...
Scilabvery poor .pdf file2018-04-11 11/04/1828703maxcy
Scilabcompile and run is screwed up2018-04-11 11/04/1831202maxcy
eSimproblem with the analysis tab2018-04-06 06/04/1827001nivedita
ScilabMux/Demux vs Bus 22018-04-05 05/04/1827200Antonio
ScilabMux/Demux vs Bus2018-04-05 05/04/1831900Antonio
Pythonregarding task submision2018-04-04 04/04/1832102saitejm...
DWSIMRegarding adding compuonds in DWSIM2018-04-04 04/04/1858601Priyam_...
DWSIMAbout unit operations in DWSIM2018-04-03 03/04/1839501Parth
OsdagOSDAG installation problem2018-04-02 02/04/1832901Yallama...
Pythonhow to download certficate2018-03-31 31/03/1834401dharmesh7
eSimYour schematic contain unknown model lm317at2018-03-31 31/03/1834401sainath...
Pythoncan miss any quiz generate problem in issue the certificate2018-03-30 30/03/1828101Abhi9839
ScilabCPGE MODULE Bode parms2018-03-30 30/03/1833201AVISHVAk
Pythoncan't attempt the quiz 52018-03-30 30/03/1827001Bhargavi
Pythoncan't attempt the quiz 62018-03-30 30/03/1825801Tulasi
eSimError while plotting python plot editor. How do i rectify it?2018-03-29 29/03/1834601Sushmitha
eSimAbout Kicad library2018-03-29 29/03/1831701PoonamC...
Pythonmistakenly opened the quiz 12018-03-29 29/03/1827201dharmesh7
PythonQuize3 ragarding assignment submission #2018-03-28 28/03/1826201tejesh002
eSimkey error in source2018-03-28 28/03/1832301kavyada...
Osdagosdag is not opening2018-03-27 27/03/1836501sohilreddy
OsdagError while installation2018-03-26 26/03/1833201mokaeswar
PythonError in downloading certicate2018-03-25 25/03/1832001chetan_g
eSimHow to load components library2018-03-24 24/03/1834501ArshadR...
eSimError while opening python plotting Editor. Please look at console for more d...2018-03-23 23/03/1837602Sravani...
Scilabhow to identify exe file in Scilab2018-03-23 23/03/1833502padmavati
Signal Processing ToolboxOctave Interface Toolbox not installing (FOSSEE 2018 Fellowship)2018-03-23 23/03/1827701a_Xiu
eSimShows that schematic contains unknown model2018-03-23 23/03/1831201VSKhama...
Osdagexample.osi file not opening2018-03-22 22/03/1833201Subrata...
OsdagLAUNCHING OSDAG2018-03-22 22/03/1842602Hoshil_...
eSimERROR: Your schematic contain unknown model jfet_n_pspice2018-03-22 22/03/1835102Sravani...
DWSIMCATALYST is not present2018-03-22 22/03/1838502e.santosh
eSimabout coding2018-03-21 21/03/1830601PoonamC...
eSimWhy esim software is closing after few seconds after installing it2018-03-20 20/03/1832801ArshadR...
OsdagThis is a Test Question for OSDAG2018-03-19 19/03/1832601user100
PythonDoes The yaksh course BPPY is availble Through out the year?2018-03-19 19/03/1858201dave
eSimerror while opening python plotting editor2018-03-19 19/03/1833301Mayankb23
ScilabScilab 2C toolbox2018-03-19 19/03/1837701Akhil
eSimComponents missing in " Choose Component "2018-03-19 19/03/1833001Mayankb23
Scilabwhat is this toolbox2018-03-18 18/03/1831101maxcy
Scilabwindows version of scimax2018-03-18 18/03/1833701maxcy
Scilabcompiling from scilab2018-03-18 18/03/1838102maxcy
eSimUnable to load all the components in the respective libraries2018-03-18 18/03/1831601Sravani...
Python'linspace' not defined in canopy editor2018-03-17 17/03/18109001ankurrj5xe
Signal Processing ToolboxError while installing ocatave interface toolbox, required for DSP toolbox2018-03-17 17/03/1828601iakashp
eSimUnable to create a project2018-03-17 17/03/1852901Sravani...
eSimError in project creation2018-03-17 17/03/1832901Udit
eSimerror while opening a schematic2018-03-16 16/03/1832701vaishna...
eSimesim source i am not able to access2018-03-16 16/03/1834001ELDHO_SOY
eSimerror with source detail2018-03-16 16/03/1832701shubhpriya
OpenModelicaThis is a Test Question2018-03-16 16/03/1826901user100
Pythoni have a list assume 10 data in the list. If i want to remove number 3 to 8 d...2018-03-16 16/03/1826801jitendra
Scilabcall_scilab help file questions2018-03-16 16/03/1832400maxcy
Osdagosdag software not opening2018-03-15 15/03/1856901Subrata...
ScilabDesign of fir filters using windowing technique2018-03-14 14/03/1840700chandra...
PythonWhere can I find the data files and images required for the course?2018-03-13 13/03/1840501anuragr
eSimua741 pin details2018-03-13 13/03/1831402ashish
eSimAll the components are not downloaded.2018-03-12 12/03/1831101gaytrip...
PythonWhere can i found Python course?2018-03-12 12/03/1832302marmikp...
eSimerror: dos not contain any kicad netlist file for conversion2018-03-12 12/03/1840501shubhpriya
Scilabscilab and linux2018-03-11 11/03/1838801maxcy
Pythonimport error2018-03-11 11/03/1828301tharuna...
Signal Processing Toolboxlinux and Scilab2018-03-10 10/03/1835401maxcy
PythonInterface to submit questions.2018-03-09 09/03/1846201shubhan...
ScilabScilab Symbolic Toolbox2018-03-09 09/03/1887002maxcy
Scilabatoms toolbox and syms2018-03-08 08/03/1838600maxcy
OpenFOAMWhy Initial residual is not equal to the final residual obtained from the pre...2018-03-07 07/03/1850101ankur_garg
eSimcannot open project2018-03-07 07/03/1843803agrahara
eSimissue regarding number of ports2018-03-05 05/03/1832001anudeep...
ScilabConvolutional Neural Network2018-03-05 05/03/1835901advait
Scilabis the cloud working2018-03-05 05/03/1831601maxcy
Scilabevans code example not working2018-03-05 05/03/1840101maxcy
eSimPython plotting missing2018-03-04 04/03/1832001sounnda...
Scilabwhat is syms and how does it affect the code2018-03-04 04/03/1884502maxcy
Scilabsgrid from definition example2018-03-03 03/03/1831601maxcy
eSimNot able to start up the schematics.2018-03-03 03/03/1836701bunty.him
Scilabrerunning cloud code2018-03-03 03/03/1831901maxcy
Scilaba warning message2018-03-03 03/03/1832801maxcy
Scilabimporting .sce file2018-03-03 03/03/1833802maxcy
eSimCannot find 'eSim_' files in the components library2018-03-02 02/03/1834401rishabh...
Scilabwhy do we plot digital filter spectrum on 0 - 0.5 only2018-03-02 02/03/1831001chandra...
Scilabxgrid() is a no show2018-03-02 02/03/1836502maxcy
Scilabcopying code doesn't wotk2018-03-01 01/03/1833202maxcy
ScilabConvolutional Neural Network using the Caffe model2018-03-01 01/03/1835700advait
eSimsimulation problem in cmos inverter2018-03-01 01/03/1834202ajinkya...
eSimCan't seem to create a new project2018-03-01 01/03/1841502rishabh...
Scilabcsim coding question2018-03-01 01/03/1829501maxcy
Scilabcloud book examples not working2018-02-28 28/02/1833901maxcy
Scilabroot locus code from scilab book2018-02-28 28/02/1865802maxcy
Scilabposting questions2018-02-28 28/02/1833900maxcy
Pythoncanopy not available2018-02-28 28/02/1828001HarishS...
Scilabroot locus problem2018-02-28 28/02/1834404maxcy
Scilabroot locus example problem2018-02-28 28/02/1831201maxcy
Scilabevans example problem2018-02-28 28/02/1830501maxcy
Scilabevans example problem2018-02-28 28/02/1832501maxcy
Scilabevans example problem2018-02-28 28/02/1833001maxcy
DWSIMDehydration Plant Simulation2018-02-27 27/02/1835702Haaresh...
ScilabReview duration2018-02-27 27/02/1830201dhruvpa...
eSimSquare wave in eSim2018-02-27 27/02/1833402ajinkya...
Scilabmatrix operator2018-02-24 24/02/1835004maxcy
eSimNon available componant2018-02-24 24/02/1829901jrangar...
Scilabcode syntax question from example code2018-02-23 23/02/1831802maxcy
FOSSEE LaptopDIFFICULTY IN INSTALLING AND RUNNING OPTIMIZATION TOOL BOX2018-02-23 23/02/1827201varadar...
ScilabAlternate instruction in scilab for filtic in matlab2018-02-23 23/02/1849701Raji
Scilabcode syntax question2018-02-22 22/02/1832602maxcy
ScilabMatlab equivalent2018-02-21 21/02/1842103maxcy
eSimUNKNOWN MODEL-lm555n2018-02-20 20/02/1833801shekhar
DWSIMDehydration Plant2018-02-19 19/02/1840301Haaresh...
ScilabCan anyone help me figure out how to work with microdaq2018-02-16 16/02/1838001chandra...
eSimtransient analysis2018-02-16 16/02/1838702sounnda...
Scilabsetup GUI home page2018-02-16 16/02/1836402maxcy
Optimization ToolboxFOSSEE optimization toolbox does not load under Scilab 5.5.2/Windows 72018-02-12 12/02/1830302mottelet
Scilab-Arduinonot able to open the icon2018-02-10 10/02/1835502nilashri
Scilabregarding XCOS2018-02-10 10/02/1835302nilashri
eSimPython plot error-reg2018-02-05 05/02/1840802Jeevash...
eSimWaveform generation2018-02-05 05/02/1836201KarthikaK
eSimvcc supply-reg2018-02-04 04/02/1835701Jeevash...
DWSIMProble with opening DWSIM file into software2018-02-02 02/02/1845301sbdongare
eSimno python plot2018-01-26 26/01/1835901sounnda...
DWSIMKinetic reaction2018-01-21 21/01/1839501Divyans...
eSimcommand not found2018-01-14 14/01/1849301sounnda...
DWSIMRigorous Distillation2018-01-12 12/01/1846201Divyans...
DWSIMPFR step size error2018-01-11 11/01/1839701Rutuaj24
eSimhow to open a new project?2018-01-10 10/01/1845701VENKATT...
eSimPython Plot error2018-01-07 07/01/1842801shefali04
ScilabWorking with scilab (DSP Lab) and Texas instruments dsp processor2018-01-05 05/01/1897502chandra...
eSimWhat exactly eSim is?2018-01-04 04/01/1833802siddhes...
FOSSEE Laptopliblapack.so.3gf2018-01-03 03/01/1840101ulima
DWSIMDisplaying reaction results2017-12-31 31/12/1739601Divyans...
eSimHow to give inputs to the IC's2017-12-28 28/12/1740601A.Karthik
eSimHow to set a Path?2017-12-27 27/12/1737201VENKATT...
eSimHow to work with This Software in Laptop?2017-12-27 27/12/1737403VENKATT...
ScilabProblem with visualisatioin of output of chebyshev type one filter.2017-12-24 24/12/1737001chandra...
DWSIMcan you suggest me the solution for the error I'm getting while designing met...2017-12-22 22/12/1740701Harshali
Scilabinput function is behaving in a inconsist function2017-12-20 20/12/17137301chandra...
eSimunable to give title of the project.2017-12-20 20/12/1739202A.Karthik
ScilabProblem with input command in scilab for reading mulitiple data2017-12-20 20/12/1737401chandra...
Scilab2d graph. Powers of a variable.2017-12-16 16/12/1734211Abbas
ScilabProblem with design of iir lpf filter.2017-12-15 15/12/1734501chandra...
eSimpython plotting error and global label error2017-12-15 15/12/1754401Vignesh
eSimesim installation problem2017-12-13 13/12/1788318shekhar
eSimgraphical error2017-12-12 12/12/1732602sounnda...
eSimunable to use eSim sources2017-12-09 09/12/1757902amolbed...
ScilabProblem in visualistion of the output2017-12-09 09/12/1737601chandra...
ScilabProblem installing Scilab 6.0 on ubuntu 16.04 LTS2017-12-06 06/12/1753101chandra...
ScilabSteps to install scimax toolbox on Scilab2017-12-06 06/12/1744301sudip.26
eSimconversion error, unknown component2017-12-02 02/12/1741803sounnda...
ScilabFIR Filter design2017-12-01 01/12/1735101Akhtar
ScilabProblem finding the DFT of the sequence as the length of sequence increases2017-11-30 30/11/1783701chandra...
OpenFOAMLooking for Solver for Three Phase Heat Transfer with phase change for Cryoge...2017-11-29 29/11/1739201arezes
ScilabN point FFT calculation2017-11-28 28/11/1742401chandra...
OpenFOAMResource persons for OPENFOAM Software.2017-11-22 22/11/1735901thprasads
eSimProblem in opening the schematic window after double clicking the esim icon.2017-11-15 15/11/1748914kksunda...
Scilabproblem matrix dimension2017-11-13 13/11/1737501Timmy
ScilabThe Weierstrass-Mandelbrot curve2017-11-12 12/11/1743601Deniro
eSimsteps to do after getting an approved mail2017-11-11 11/11/1735101AKSHAYA
eSimerror while using thyristor.2017-11-09 09/11/1749402sheena
eSimCircuit Rules check error in Gnd2017-11-07 07/11/1737701Gokul
eSimfinding input signal2017-11-06 06/11/1738901sounnda...
eSimerror in ERC2017-11-06 06/11/1747107sounnda...
ScilabWeiner kinchin relation code2017-11-06 06/11/1750201chandra...
eSim'plot_data_i.txt' and 'plot_data_v.txt' files cannot be created. why is this ...2017-11-04 04/11/1747103sheena
eSimerror while simulating the schematic.2017-11-02 02/11/1747302sheena
DWSIMDWSIM for membrane separation2017-10-30 30/10/1759601faya
OpenModelicaModelling a Spark Plug for simulation project.2017-10-30 30/10/1735401Leong
eSimabstract submission2017-10-28 28/10/1736501Karthik...
eSimCIRCUIT SIMULATION PROPOSAL FORM SUBMIT ERROR2017-10-24 24/10/1744002CHETAN1994
eSimlast date for circuit simulation2017-10-23 23/10/1739701sounnda...
eSimComponents not Available2017-10-20 20/10/1738801dharm_007
eSimhow to simulate 555 timer based astable multivibrator with esim?2017-10-19 19/10/1754101anil
eSimLaunching esim on my pc.2017-10-18 18/10/1738105Telegenic
eSimproiect name error2017-10-18 18/10/1740301Abhilas...
Signal Processing ToolboxA Missing Block (OTA) in Xcos tool box2017-10-16 16/10/1735701Narayan...
System Identification ToolboxIs a PHARMACY background STUDENT can develop a TCB2017-10-13 13/10/1731211prashan...
ScilabHOW TO USE SCILAB FOR PHARMACY EDUCATION REGARDING ACTION AND REACTION OF CHE...2017-10-13 13/10/1739701prashan...
PythonIs a computer background student can develop a TCB2017-10-13 13/10/1747601Anjusiva
eSimproposal form2017-10-11 11/10/1739101sjitm
eSimwhere can i find a 3-phase ac source.2017-10-10 10/10/1740401Abhinay123
eSimProposal Form for circuit simulation project.2017-10-09 09/10/1743601Abhinay123
DWSIMDownloading the Tutorials2017-10-03 03/10/1747401akash.s...
DWSIMIssue in DWSIM Software Installation2017-10-02 02/10/1756001akash.s...
ScilabGlitch in Scilab version 62017-09-17 17/09/1746201prnaren
DWSIMThree phase open-source library2017-09-13 13/09/1746101simon
DWSIMThree phase library open-source2017-09-13 13/09/1748601simon
DWSIMcan we use DWSIM for simulutions for a spray or rotay drier systems2017-09-07 07/09/1749901bhagath...
OpenFOAMdiffusivity directional variables2017-08-30 30/08/1749701ashok
ScilabStand alone exe. from Scilab 6.0.02017-08-24 24/08/1759101antony
Optimization ToolboxInstallation problem2017-08-19 19/08/1744001SRS24
ScilabInverted graph2017-08-19 19/08/1744001rajeshbm
Pythonunable to install canopy2017-08-18 18/08/1748301ulfa
ScilabCommands: syms, laplace, ilaplace2017-08-15 15/08/17146601ojumut
DWSIMinternship details2017-08-14 14/08/1746201goyalakash
OpenFOAMchange of volume inside pipe2017-08-11 11/08/1752703ashok
Scilabinput problem2017-08-11 11/08/17106301jsant100
DWSIMRegarding Submission of flow sheet and its deadline.2017-08-07 07/08/1748401miral
eSimhai friends caan any one resolve the problem attached in images?2017-08-05 05/08/1739201mahesh
ScilabIncorrect polynomial operations?2017-08-04 04/08/1744501leohpaz
ScilabCan't convert old diagram (problem in version) while using To Workspace (xcos)2017-08-02 02/08/1749201leohpaz
OpenFOAMOpenFOAM Issue with Porous Media and Buoyancy2017-08-02 02/08/1757801rudhkul
Optimization Toolboxexample problem required for understanding.2017-07-31 31/07/1745401ravinde...
DWSIMAssigning operating pressure for distillation column2017-07-27 27/07/1754501mbali20
ScilabParticleLabeling with IPCV toolbox command imlabel2017-07-26 26/07/1746501Hackmet
ScilabQuery regarding submission of code2017-07-20 20/07/1744001amitkum...
ScilabIs it possible convert a PSPICE code to scilab code?2017-07-17 17/07/1747301amitkum...
OpenFOAMvertical loading in interfoam2017-07-11 11/07/1747001hsai1991
OpenFOAMConvergence while using icoFoam2017-07-06 06/07/1754201ankur_garg
eSimUnable to load footprints while opening CvPcb2017-07-05 05/07/1780802HARISHBHAT
eSimUnable to map footprints2017-07-04 04/07/1751102HARISHBHAT
OpenFOAMSimulation Of Flow over cylinder with forward splitter plate2017-07-03 03/07/1749401maheshtom
ScilabImage in GUI2017-07-03 03/07/1751701jayati
eSimUNABLE TO INSTALL IN UBUNTU16.04 LTS2017-06-28 28/06/1741701mahesh
ScilabLab Migration Proposal2017-06-19 19/06/1746001dimple
ScilabProblem with xls_link Scilab tool2017-06-16 16/06/1744801MrWhite10
eSimCan't install eSim 1.1.2 on Ubuntu 162017-06-12 12/06/1753303pldissa...
OpenFOAMOpenFOAM-1.6.x Installation Error2017-06-07 07/06/1754101Samarendra
Scilabhttps://help.scilab.org/ not working2017-06-06 06/06/1765802rampras...
ScilabDubugging in Scilab2017-06-06 06/06/1751402rampras...
SBHSError while running program2017-06-01 01/06/1750601lalitch...
ScilabImage processing performance2017-05-31 31/05/1751702Hackmet
Pythonhow to join the course2017-05-27 27/05/1754201anjU
Computer Vision ToolboxBlob Detection and Analysis2017-05-22 22/05/1745402teju5531
ScilabScilab problem2017-05-22 22/05/1750701skitlesas
ScilabScilab task problem2017-05-22 22/05/1749901skitlesas
ScilabNeed help with scilab task2017-05-21 21/05/1747701skitlesas
eSimeSim ibraries missing2017-05-20 20/05/1745301Franky
OpenFOAMDynamic Moving Mesh2017-05-20 20/05/1749901Samarendra
OpenFOAMHow to Create Baffles in Geometry2017-05-17 17/05/171466-11ankur_garg
Scilabscilab version 6 related problem2017-05-17 17/05/1751901ruchisingh
eSimPassing option to ngspice2017-05-15 15/05/1747302buleks
DWSIMstep size becomes too small error in plug flow reactor2017-05-14 14/05/1763801Nikhil
DWSIMdouble clicking not opening main editing window2017-05-12 12/05/1747501Nikhil
Scilab"Abort" command in Scilab 6.0.02017-05-08 08/05/1793502Hackmet
Scilabimage processing error in scilab2017-05-05 05/05/1749801gowtham...
ScilabSample source file in book proposal form2017-05-05 05/05/1746501amitkum...
ScilabError while opening scilab.2017-05-03 03/05/1777501gowtham...
Scilabproblem with the opening environment window.2017-05-01 01/05/1756302GVP
DWSIMMulti component Distillation2017-04-25 25/04/1788101RajatSu...
OpenFOAMHow to create a internal gate?2017-04-25 25/04/1776701hsai1991
OpenFOAMCannot find flow at bottom surface_slump test2017-04-25 25/04/1755604ashok
OpenFOAMplotting at a definite point2017-04-14 14/04/1764401SUBHANKAR
OpenFOAMgetting time-average flow fields within certain time interval2017-04-09 09/04/1786901SUBHANKAR
OpenModelicaHOW TO APPROACH MULTIBODY SYSTEM IN OPEN MODELICA2017-04-07 07/04/1746302DURAISAMY
ScilabQuestion for plotting 2D2017-04-05 05/04/17147703chanyau...
OpenFOAMplotting skin friction coefficient2017-04-03 03/04/17145701SUBHANKAR
OpenFOAMlaminar separation bubble2017-04-02 02/04/1750301SUBHANKAR
OpenFOAMSnappyHexMesh Tutorial2017-04-01 01/04/1769901ankur_garg
Scilabxcos - rfile_f - input format2017-03-31 31/03/1787501ebike_dev
ScilabHow to define variable for a matrix?2017-03-29 29/03/1749201emerson...
OpenFOAMpressure plot in paraFoam2017-03-27 27/03/1794601SUBHANKAR
eSimError trying to create schematic (Ubuntu running under Win10)2017-03-24 24/03/17104106lreni
eSimngspice not running in eSim2017-03-22 22/03/1762304RG190564
eSimWarning at starting eSim and error at calling ngspice2017-03-21 21/03/1750701RG190564
DWSIMUnbalanced equation2017-03-19 19/03/1759002nas.fiq
Scilabscilab simulation error 21; Invalid index.2017-03-18 18/03/17157801adiblhf
Scilabsimulation problem2017-03-17 17/03/1755301adiblhf
eSimSOFTWARE IS NOT WORKING2017-03-17 17/03/1757601ajitsingh
OpenFOAMpost-processing in paraview2017-03-10 10/03/1791101SUBHANKAR
DWSIMDWSIM components2017-03-08 08/03/1769502nirbhay...
OpenFOAMHow to find/call each individual cell in a computational domain2017-03-08 08/03/17170503sarojdip
ScilabSimulation of pipe flow2017-03-01 01/03/1758001jasvinder
Image Processing ToolboxImage read and display problem2017-02-24 24/02/1750801ramansa...
eSimQuery Related Esim2017-02-24 24/02/1748401Sunil4u
FOSSEE LaptopTest Question2017-02-23 23/02/1744201test
ScilabVelocity profile2017-02-16 16/02/1747501jasvinder
Signal Processing Toolboxplease specify the complete detailed instruction of installing scilab symboli...2017-02-10 10/02/1749001dhatta
Scilab2D Lookup Table: How to do it??2017-02-07 07/02/1790402Prof.X
ScilabCompile call_scilab in c++ using Eclipse IDE Helios Service Release 22017-02-04 04/02/1757201phamish...
Scilabscilab cloud2017-02-03 03/02/1764803girishl
SBHSMachine ID 62017-02-03 03/02/1746701140020009
ScilabQUESTION IS x(t)=exp(a*t) while a>12017-01-26 26/01/1758011dhatta
OpenFOAMmultiPhaseEulerFoam case running issue..2017-01-17 17/01/1787301sarojdip
OpenFOAMBasic queries regarding cad, mesh and sim2017-01-16 16/01/1755102Rawnap07
ScilabXcos Block Wizard2017-01-16 16/01/1776001Shigeru
DWSIMRECYCLE STREAM2017-01-10 10/01/17108101thubelihle
ScilabHow to load file .dat with true variable name2017-01-07 07/01/17164003dafri
Scilabusage of scilab2016-12-30 30/12/1676301lipikas...
DWSIMSIMULATION inquiry2016-12-29 29/12/1661402thubelihle
Scilabplot crashes using scf under Xubuntu2016-12-28 28/12/1651401sebf
ScilabsciFLT toolbox - Unable to load block from...2016-12-25 25/12/1686001DLakomy
DWSIMHEAT EXCHANGER2016-12-04 04/12/1683001thubelihle
DWSIMOPEN SOURCE APPLICATION2016-12-03 03/12/1662905thubelihle
DWSIMFLASH DRUM SEPARATOR2016-12-03 03/12/1672001thubelihle
ScilabXcos: an equivalent simulink palette2016-12-01 01/12/1666501Naiara
eSimnot getting frequency response2016-11-26 26/11/1652101bibek
eSimnot fetting correct result2016-11-24 24/11/1653201bibek
OpenFOAMpost-processing problem2016-11-23 23/11/1674901SUBHANKAR
eSimNor getting coorrect output for a clamper circuit2016-11-23 23/11/1664101bibek
ScilabIPD BlobStatistics2016-11-22 22/11/1651701AllenMar
ScilabHow to install E4coder in Scilab2016-11-22 22/11/1652401Mohamed
ScilabAdding a non-numerical header for a text file of numerical column values in S...2016-11-21 21/11/1665701Farhan
ScilabCombining two text files to one in Scilab2016-11-21 21/11/1658901Farhan
OpenFOAMproblem in results2016-11-21 21/11/1659002SUBHANKAR
ScilabfscanfMat in GUI (PushButton)2016-11-18 18/11/1662602Hackmet
ScilabfscanfMat via PushButton?2016-11-18 18/11/1656101Hackmet
eSimNot getting the correct Python plot2016-11-18 18/11/1657601bibek
Scilabmaking a circle looking like a circle2016-11-16 16/11/1689502moon61
ScilabHelp required in running a C program in scilab2016-11-16 16/11/1695306Vijay_K...
eSimeSim on BOSS Linux (anoop)2016-11-14 14/11/1655201madhan
ScilabPlotting coordinates2016-11-11 11/11/1653401AllenMar
ScilabRandom binary sequence generator2016-11-10 10/11/1668401ashutumho
ScilabImplementing Matlab function in scilab2016-11-10 10/11/1658801Nisha
ScilabBitBucket Repo2016-11-09 09/11/1651101Anuradha
ScilabCACSD toolbox install2016-11-06 06/11/1660001Survind...
OpenFOAMopenfoam to firefoam throuh paraview?2016-11-01 01/11/16113503frances...
OpenFOAMNo vortex shedding2016-10-31 31/10/1659801SUBHANKAR
ScilabHow to install scilab communication toolbox for Scilab 5.5.12016-10-29 29/10/1661801kavyama...
ScilabHow to draw gear profile.2016-10-26 26/10/1661501Prashant05
OpenFOAMparaview tools2016-10-21 21/10/1664601SUBHANKAR
OpenFOAMerror while running a solver2016-10-13 13/10/16308901SUBHANKAR
OpenFOAMSurfaceTracking2016-10-06 06/10/1667101Arahata
eSimSimulation not working. Error while opening phyton plotting editor2016-09-29 29/09/1658901memobec...
eSimSimulation not working2016-09-29 29/09/1657201memobec...
OpenFOAMboundary condition2016-09-26 26/09/1657101SUBHANKAR
OpenFOAMplotting the residuals2016-08-23 23/08/16118701SUBHANKAR
eSimdc analysis reg2016-08-18 18/08/1651801krishna
OpenFOAMplotting in paraview2016-08-16 16/08/1661602SUBHANKAR
eSimRun setup2016-08-08 08/08/16124301Shubham
eSimDC Analysis _reg2016-08-04 04/08/1681002krishna
OpenFOAMco-efficient of drag and lift2016-08-03 03/08/1679304SUBHANKAR
OpenFOAMopemFoam2016-08-02 02/08/1672402mrinal
Scilabsivp TOOLBOX2016-07-22 22/07/16116806amol_gp
eSimerror while opening python plotting error2016-07-21 21/07/1679901Ramu
OpenFOAMPROBLEM2016-07-21 21/07/1682101SUBHANKAR
Scilabunable to install SIVP2016-07-20 20/07/1687401amish
eSimUnable to install eSim on Ubuntu2016-07-19 19/07/1678401Ramu
eSimInjecting noise2016-07-16 16/07/1681401dangel
eSimexecution error reg2016-07-13 13/07/1672601krishna
ScilabScimax - Scilab Symbolic Toolbox2016-07-12 12/07/16178204gsanchi...
eSimExecution reg2016-07-11 11/07/1673403krishna
eSimregarding Lab migration project2016-07-09 09/07/1674601bjena
ScilabScilab Xcos2016-07-06 06/07/16156201jalpa
ScilabScilab 5.5.2 - Xcos2016-07-06 06/07/16243605jalpa
eSimpython plotting window does not open up (On latest build of eSim)2016-06-26 26/06/1692503kavyama...
eSiminstallation reg2016-06-24 24/06/1680701krishna
OpenFOAMblockmeshdict file2016-06-23 23/06/1679001SUBHANKAR
ScilabSCILAB certification2016-06-22 22/06/1689501miniranis
ScilabSCILAB code for lotka voltera model2016-06-19 19/06/1681901amol_gp
ScilabNumerical Linearization (CACSD tool)2016-06-15 15/06/1685203madhan
OpenFOAMWriting blockMeshDict file2016-06-14 14/06/1679801SUBHANKAR
eSimeSim not working in windows 102016-06-06 06/06/1691501dangel
eSimundetaking form2016-05-31 31/05/1671601bjena
eSimesim training on skype2016-05-31 31/05/1674301bjena
DWSIMNew Compound Creator Study2016-05-26 26/05/16166301akashbt
OpenFOAMobject inspector menu in paraview2016-05-25 25/05/1691101SUBHANKAR
ScilabAnswer format in scilab2016-05-16 16/05/16154301nihalbisen
OpenFOAMTROUBLE IN SIMULATION2016-05-15 15/05/16103702SUBHANKAR
OpenFOAMSimulation of Euler-lagrangian bubble using OpenFOAM2016-05-11 11/05/16133802anirban...
OpenFOAMOPENFOAM IN WINDOWS2016-05-10 10/05/16110901SUBHANKAR
eSimProblem in getting started with eSim2016-05-06 06/05/1693102jebi
ScilabError in graphic plot2016-05-03 03/05/1696401mipeli
DWSIMHow to install and run DWSIM on MAC AIR?2016-04-25 25/04/16110802dprao
ScilabDebug a function plot2016-04-25 25/04/16164804rinkley
OpenFOAMHow to plot a graph in Open foam2016-04-24 24/04/16144901KVK
eSimproblem in creating project2016-04-23 23/04/1679701teny
DWSIMCreating component hypothetically2016-04-22 22/04/16287102krunal
ScilabReading a wav file2016-04-21 21/04/1698902Muralik...
eSimscilab contourf plot axis scaling2016-04-06 06/04/1694001max0924051
Scilabscilab plot contourf2016-03-31 31/03/16101603max0924051
eSimincorect ac simulaton2016-03-29 29/03/16792011mikimo...
eSimeSim Eeschema Diode component problem.2016-03-24 24/03/1698101Winderson
eSimunable to simulate dc power supply2016-03-23 23/03/1679801ankush
eSimImpossibilité de créer un subcircuit.2016-03-22 22/03/1682501jptt
eSimImpossibilité de créer un subcircuit.2016-03-22 22/03/1675103jptt
OpenFOAMError in Turbulence Solver2016-03-18 18/03/16546706KVK
eSimEnable to find AC voltage source2016-03-15 15/03/16225702ankush
Scilabplot sin(x)/x2016-03-14 14/03/16121602RudiLehn
OpenFOAMSimulation error (delta T is decreasing while the iterations are being carrie...2016-03-13 13/03/16431005KVK
FOSSEE LaptopCost and postal charge2016-03-11 11/03/1688101arasu
eSimInstallation error2016-03-10 10/03/1696401alex
Scilabsurf color with OS X2016-03-06 06/03/1682503RudiLehn
eSimTesting Forum Reply2016-03-01 01/03/16964011fahim
eSimUnable to get details of source2016-03-01 01/03/1692105ankush
ScilabVehicle Count2016-02-27 27/02/16109001chinnur010
DWSIMEquilibrium reactor simulation2016-02-26 26/02/16347602Parul_s...
eSimRegarding footprint2016-02-25 25/02/1677603pankaj
Scilabreading dcm images - error2016-02-16 16/02/16110401dr.cs1973
Scilabmpi in scilab2016-02-14 14/02/1688701Vadim
FOSSEE LaptopHindi Typing Layout2016-02-13 13/02/1666702sai
FOSSEE LaptopKiwix - Offline Wikipedia2016-02-11 11/02/1662201sai
DWSIMTextbook companion project2016-02-10 10/02/1693002vignesh...
Scilabdrop2016-02-10 10/02/1686503JeniVenit
Python"syms" not taking help!2016-02-09 09/02/1677301rishabh...
eSimUnable to run the simulation2016-02-09 09/02/1695004balu.ee...
eSimError while opening python plotting Editor.2016-02-05 05/02/16100004yogi
FOSSEE Laptopfeatures of laptop2016-01-29 29/01/1673202janabha...
eSimlab migration programe2016-01-29 29/01/1682401janabha...
ScilabFlood fill Operation in Scilab2016-01-20 20/01/16150301saraths
eSimunable to install e sim on linux2016-01-18 18/01/1684301yogi
eSimunable to install e sim on linux2016-01-18 18/01/1689801yogi
eSimGetting errors when simulating the basic logic gates2016-01-18 18/01/1682101abaruah
eSimSimulation of basic logic gates2016-01-18 18/01/1681401abaruah
eSimSimulation of basic logic gates2016-01-18 18/01/16127303abaruah
eSimError while openinf python plotting Editor2016-01-18 18/01/1695702abaruah
FOSSEE Laptopaudio-video recorded by kazam2016-01-14 14/01/1654802sai
eSimabout istallation on ubuntu2016-01-11 11/01/1682401yesmahi
ScilabHow to make and display calculation Table using scilab.2016-01-11 11/01/16323001taneja
FOSSEE Laptopoffline wikipedia2016-01-09 09/01/1656901sai
ScilabSolution provided in book is wrong2016-01-06 06/01/1696201taneja
ScilabShould answer in book exactly match the one from your code.2016-01-05 05/01/1693902taneja
DWSIMConversion of Reaction2016-01-04 04/01/16126001manikth...
FOSSEE LaptopHow can I get Fossee Laptop2016-01-01 01/01/1660101shridha...
DWSIMUnavailability of compounds in Database2015-12-24 24/12/15161202Y.K.Ara...
DWSIMTEXTBOOK COMPANION INTERNSHIP2015-12-23 23/12/1588301manikth...
ScilabWavelet transform in scilab2015-12-12 12/12/15192502aseemsr
eSimRight pane of footprint editor is empty2015-11-25 25/11/1586201kavyama...
eSimI am unable to Install eSim software.2015-11-25 25/11/1590501balu.ee...
eSimRegarding IN/OUT pin configuration2015-11-06 06/11/1593502upk345
eSimunable to add LM741 subcircuit2015-11-04 04/11/1595402sunitha
eSimConduction of workshop regarding2015-10-31 31/10/1578101boomaee...
Osdagmazhar2015-10-27 27/10/1567302mazhar
eSimunable to open esim source to place sine wave2015-10-25 25/10/1585702muqeeth
eSimEsim Not supported in Windows10-Reg2015-10-24 24/10/1586101srimaky
eSimunable to create project2015-10-24 24/10/151380-12muqeeth
eSimHow to plot voltage Vs current through a diode (Diode chara.)2015-10-23 23/10/15126404kavyama...
eSimProblem regarding current direction.2015-10-21 21/10/1580901samre1234
eSimhow to measure resistance2015-10-21 21/10/1575601samre1234
DWSIMTransient simulations and Stream wise report2015-10-21 21/10/15121901prnaren
eSimMeasurement of resistance in eSim.2015-10-18 18/10/1574301samre1234
eSimTo measure and plot the branch current.2015-10-16 16/10/1585001samre1234
eSimInstallation with Windows2015-10-15 15/10/15103402srinaths
FOSSEE Laptopbrightness decreases after 10-15 seconds2015-10-15 15/10/1559801Deepak
eSimError while opening python plotting editor.2015-10-14 14/10/1595102samre1234
eSimAPR33A32015-10-08 08/10/1581601Swetha
eSimyour schematic contains an unknown component vplot8_12015-09-26 26/09/15132601samre1234
eSimYour schematic contain unknown model tl0722015-09-22 22/09/15101001Ebardie
eSimWIndows installation2015-09-22 22/09/15116303Ebardie
FOSSEE Laptopmouse pad and LAN2015-09-20 20/09/1556701150100063
FOSSEE Laptopunable to download flash player2015-09-15 15/09/1560701Deepak
FOSSEE Laptopmouse pad + keybord2015-09-14 14/09/1556701Jogendra
FOSSEE Laptopregarding password2015-09-14 14/09/1557201150260019
SandhiWhile creating up counter block in python getting following erros at cmake2015-09-08 08/09/1581711Ashwini
SandhiWhile generating up counter block getting following error at cmake2015-09-08 08/09/1562301Ashwini
Sandhisandhi installation error2015-09-03 03/09/1562901Ashwini
Sandhi"Sandhi" installation2015-09-03 03/09/1564301Ashwini
OpenFOAMcharger making sparking like noise2015-08-31 31/08/1578301150020063
SandhiError Message2015-08-31 31/08/1570602Ashwini
FOSSEE Laptopkeyboard2015-08-26 26/08/1569401bittu
FOSSEE LaptopHotspot2015-08-25 25/08/1563702akshayk...
SandhiWay to create block in Python2015-08-24 24/08/1595501Ashwini
FOSSEE LaptopInternet not working through lan cable2015-08-23 23/08/1559102akshayk...
FOSSEE Laptopcamera2015-08-23 23/08/1558801Deepak
SandhiBy default it is taking C++ language.Why not asking for language?2015-08-13 13/08/1566201Ashwini
Sandhiwhile running make command I am getting following error2015-08-06 06/08/1566300Ashwini
Scilab-ArduinoError while executing exec loader.sce2015-08-05 05/08/15112802kinitrupti
Scilab-Arduinocommunication over ethernet instead of usb2015-08-05 05/08/1572301Rajanee...
Scilab-ArduinoWhich macros is being used? .sci or .bin!!!2015-08-05 05/08/1554102Rajanee...
Scilab-Arduinomodification in firmware for pwm freq setup2015-08-05 05/08/1572101Rajanee...
SandhiWhile developing source block in sandhi getting errors:2015-08-05 05/08/1568200Ashwini
Sandhigrep2015-08-04 04/08/1566400Ashwini
Scilab-ArduinoCost of Arduino board with shield2015-08-04 04/08/1561602Siva_J
SandhiI want to implement same block as constatnt block2015-07-28 28/07/1570402Ashwini
Scilab-ArduinoUnable to upload program with Scilab Arduino Toolbox2015-07-26 26/07/1598006Navdeep
SandhiI want to change number of input2015-07-23 23/07/1567401Ashwini
Sandhii have module named as D into that block sub. Now i am going to create anothe...2015-07-23 23/07/1578101Ashwini
FOSSEE Laptophow to enter bios setup2015-07-16 16/07/1569811namitka...
SandhiPorting Sandhi program on website2015-07-16 16/07/1567100anamaykane
FOSSEE LaptopNot able to install Flash Plugin in Firefox on FOSSEE2015-07-15 15/07/1562501namitka...
SandhiScilab code to Sandhi block2015-07-13 13/07/1576703anamaykane
FOSSEE Laptopprinter2015-05-06 06/05/1575426rodneyb...
PythonCheck if a file exists using Python2015-03-27 27/03/1599705test2
FOSSEE LaptopDamped audio through speakers and headphone2015-03-26 26/03/1574311Srikant